Weather in Pocha

Russia / Arkhangel'skaya Oblast'     62°11′29″N   38°10′31″E
temp.,
°C
wind,
m/s
gust,
m/s
humid.,
%
clouds,
%
prec.,
mm/h
press.,
hPa
HPBL,
m
19 april, mon
mon1900:00−1e27805 0.0 1035126
03:00−2e26825 0.0 1036110
06:00−1ese25785 0.0 1036148
09:00+4ese24535 0.0 1036669
12:00+7ese23425 0.0 10351253
15:00+8ese234099 0.0 10341385
18:00+6ese1255100 0.0 103345
21:00+3ese2268100 0.0 103415
20 april, tue
tue2000:00+1se22725 0.0 103320
03:00−1se22760 0.0 103334
06:000se25750 0.0 1033118
09:00+5sse24530 0.0 1032567
12:00+8se35430 0.0 10311287
15:00+9se35370 0.0 10281429
18:00+8se36435 0.0 1026997
21:00+3ese276410 0.0 1026121
21 april, wed
wed2100:00+2ese297370 0.0 1024171
03:00+1ese3107450 0.0 1022210
06:00+1e31169100 0.0 1019349
09:00+5ese51254100 0.0 1016707
12:00+6ese51247100 0.0 10121068
15:00+3ese51487100 0.8 10101105
18:00+2ese51294100 0.5 1007884
21:00+2se41296100 1.5 1005617
22 april, thu
thu2200:00+1se41197100 0.6 1004547
03:00+2se41097100 1.1 1003680
06:00+2se41097100 0.9 1002771
09:00+2s51196100 1.9 1004811
12:00+4ssw51178100 0.3 10061197
15:00+3ssw4996100 1.0 1007645
18:00+2sw4896100 0.3 1009666
21:00+2ssw41197100 0.4 1010781
23 april, fri
fri2300:00+3ssw41090100 0.1 1012740
03:00+1s38955 0.1 1013234
06:00+2se399485 0.0 1013266
09:00+6sse51389100 0.1 1013680
12:00+7s4990100 0.7 1014672
15:00+6sse2895100 1.6 1014312
18:00+7se21093100 0.5 1014529
21:00+7e3119598 0.5 1011307